Location: Saluda
(35.2377°N, 82.3468°W)
Time: 05:26:23
(UTC+00:00)

Vanguard 2 - Pass Details

Date: 06 October 2022
Orbit: 553 x 2933 km, 32.9° (Epoch: 26 November)

Event Time Altitude Azimuth Distance (km) Brightness Sun altitude
Rises 15:34:22 0° 213° (SSW) 3,619 11.2 42.8°
Reaches altitude 10° 15:36:51 10° 202° (SSW) 2,928 11.0 43.1°
Maximum altitude 15:43:18 32° 141° (SE) 2,299 12.2 43.8°
Drops below altitude 10° 15:53:10 10° 85° (E) 4,552 11.8 44.9°
Sets 15:58:06 0° 77° (ENE) 5,949 12.2 45.4°
